Location: Brantley
(31.5822°N, 86.2569°W)
Time: 16:02:55
(UTC+00:00)

S-56A Canister/Altair - All Passes

Search period start: 10 February 2026 00:00
Search period end: 20 February 2026 00:00
Orbit: 632 x 2485 km, 38.9° (Epoch: 10 February)

Date Brightness Start Highest point End Pass type
(mag) Time Alt. Az. Time Alt. Az. Time Alt. Az.
10 Feb - 05:01:36 10° S 05:06:34 27° SE 05:13:17 10° E night (unlit)
10 Feb - 07:02:55 10° WSW 07:09:57 88° NNW 07:20:58 10° ENE visible
10 Feb - 09:06:56 10° W 09:15:54 60° N 09:29:04 10° ENE visible
10 Feb - 11:11:37 10° WNW 11:23:00 72° NNE 11:37:58 10° ESE visible
10 Feb - 13:16:38 10° WNW 13:29:48 67° SW 13:44:39 10° SE daylight
10 Feb - 15:24:11 10° W 15:35:18 27° SW 15:46:22 10° S daylight
11 Feb - 04:27:49 10° S 04:31:55 20° SE 04:37:05 10° E night (unlit)
11 Feb - 06:28:20 10° WSW 06:34:51 83° SSE 06:45:00 10° ENE visible
11 Feb - 08:32:04 10° W 08:40:21 60° N 08:52:47 10° ENE visible
11 Feb - 10:36:34 10° WNW 10:47:12 68° NNE 11:01:46 10° E visible
11 Feb - 12:41:18 10° WNW 12:53:58 73° SSW 13:09:04 10° SE daylight
11 Feb - 14:48:02 10° W 14:59:44 31° SW 15:11:47 10° S daylight
12 Feb - 03:54:27 10° SSE 03:57:17 14° SE 04:00:34 10° E night (unlit)
12 Feb - 05:53:49 10° SW 05:59:51 73° SSE 06:09:06 10° ENE night (unlit)
12 Feb - 07:57:15 10° W 08:04:54 60° N 08:16:34 10° ENE visible
12 Feb - 10:01:36 10° WNW 10:11:29 65° NNE 10:25:30 10° E visible
12 Feb - 12:06:05 10° WNW 12:18:10 80° SSW 12:33:18 10° SE visible
12 Feb - 14:12:08 10° WNW 14:24:06 36° SW 14:36:56 10° SSE daylight
13 Feb - 05:19:23 10° SW 05:24:57 61° SE 05:33:17 10° ENE night (unlit)
13 Feb - 07:22:30 10° W 07:29:33 61° N 07:40:25 10° ENE visible
13 Feb - 09:26:41 10° WNW 09:35:50 61° N 09:49:10 10° E visible
13 Feb - 11:30:58 10° WNW 11:42:24 86° SSW 11:57:25 10° ESE visible
13 Feb - 13:36:27 10° WNW 13:48:26 41° SW 14:01:53 10° SSE daylight
13 Feb - 15:51:08 10° WSW 15:53:27 10° SW 15:55:46 10° SW daylight
14 Feb - 04:45:01 10° SW 04:50:09 49° SE 04:57:32 10° ENE night (unlit)
14 Feb - 06:47:47 10° W 06:54:19 64° NNW 07:04:23 10° ENE visible
14 Feb - 08:51:51 10° WNW 09:00:16 58° N 09:12:50 10° E visible
14 Feb - 10:55:57 10° WNW 11:06:40 88° NNE 11:21:25 10° ESE visible
14 Feb - 13:00:58 10° WNW 13:12:45 46° SW 13:26:39 10° SSE daylight
14 Feb - 15:11:49 10° WSW 15:17:59 14° SW 15:24:17 10° SSW daylight
15 Feb - 04:10:46 10° SSW 04:15:27 38° SE 04:21:50 10° ENE night (unlit)
15 Feb - 06:13:07 10° W 06:19:10 67° NNW 06:28:28 10° ENE visible
15 Feb - 08:17:03 10° WNW 08:24:49 56° N 08:36:32 10° E visible
15 Feb - 10:21:00 10° WNW 10:31:02 82° NNE 10:45:19 10° ESE visible
15 Feb - 12:25:37 10° WNW 12:37:04 51° SW 12:51:14 10° SSE daylight
15 Feb - 14:34:35 10° W 14:42:28 17° SW 14:50:47 10° SSW daylight
16 Feb - 03:36:36 10° SSW 03:40:47 29° SE 03:46:10 10° E night (unlit)
16 Feb - 05:38:30 10° WSW 05:44:07 73° NNW 05:52:39 10° ENE night (unlit)
16 Feb - 07:42:18 10° WNW 07:49:26 54° N 08:00:17 10° ENE visible
16 Feb - 09:46:09 10° WNW 09:55:27 76° NNE 10:09:08 10° ESE visible
16 Feb - 11:50:24 10° WNW 12:01:24 57° SW 12:15:41 10° SE visible
16 Feb - 13:58:04 10° W 14:06:56 21° SW 14:16:38 10° S daylight
17 Feb - 03:02:35 10° S 03:06:11 21° SE 03:10:28 10° E night (unlit)
17 Feb - 05:03:54 10° WSW 05:09:11 81° NNW 05:16:57 10° ENE night (unlit)
17 Feb - 07:07:35 10° WNW 07:14:09 52° N 07:24:06 10° ENE visible
17 Feb - 09:11:21 10° WNW 09:19:57 71° NNE 09:32:54 10° ESE visible
17 Feb - 11:15:20 10° WNW 11:25:47 62° SSW 11:39:59 10° SE visible
17 Feb - 13:21:59 10° W 13:31:22 24° SW 13:42:04 10° S daylight
18 Feb - 02:28:49 10° S 02:31:34 16° SE 02:34:36 10° E night (unlit)
18 Feb - 04:29:21 10° WSW 04:34:18 88° SSE 04:41:23 10° ENE night (unlit)
18 Feb - 06:32:54 10° WNW 06:38:57 51° N 06:48:03 10° ENE visible
18 Feb - 08:36:35 10° WNW 08:44:32 65° NNE 08:56:38 10° E visible
18 Feb - 10:40:20 10° WNW 10:50:12 69° SSW 11:04:10 10° SE visible
18 Feb - 12:46:12 10° W 12:55:48 28° SW 13:07:13 10° S daylight
19 Feb - 01:55:47 10° SSE 01:56:56 11° SE 01:58:06 10° ESE night (unlit)
19 Feb - 03:54:49 10° SW 03:59:32 74° SSE 04:05:56 10° ENE night (unlit)
19 Feb - 05:58:15 10° W 06:03:50 50° N 06:12:08 10° ENE night (unlit)
19 Feb - 08:01:54 10° WNW 08:09:12 60° NNE 08:20:23 10° E visible
19 Feb - 10:05:27 10° WNW 10:14:42 75° SSW 10:28:15 10° SE visible
19 Feb - 12:10:40 10° W 12:20:15 31° SW 12:32:09 10° SSE daylight
